星链-32122 (STARLINK-32122)

导读 | 豆包AI

STARLINK-32122是美国SpaceX公司星链(Starlink)星座的卫星,于2024年7月28日发射。星链计划旨在近地轨道构建巨型卫星星座,为全球提供高速宽带互联网接入,尤其能覆盖地面基础设施匮乏区域。该卫星的入轨进一步扩充星链规模,持续完善全球卫星互联网络覆盖能力,推动低轨卫星通信网络建设。

基本信息
目录编号:
60285
目录名称:
STARLINK-32122
国际标识:
2024-132H
轨道中心:
EARTH
卫星名称:
星链-32122 (STARLINK-32122)
卫星全名:
星链-32122 (STARLINK-32122)
卫星状态:
在轨 (已飞行642 天)
发射日期:
2024-07-28 UTC
国别 :
美国 (US)
星等 :
--
轨道信息
数据来源 国际轨道数据
星历时间: 2026-04-30T18:37:26+0800
16小时前
查看轨道信息
半长轴: 6853.372km
偏心率: 0.0001067
轨道倾角: 53.160°
近地点辐角 78.029°
升交点赤经 172.070°
平近点角 282.083°
近地点: 474.503km
远地点: 475.967km
周期: 94.106分钟
每日圈数: 15.301936
详细信息
卫星平台:
Starlink v2.0 mini
运营商:
太空探索技术公司
运营商所在国:
美国
制造商(研发单位):
太空探索技术公司
制造商所在国:
美国
使用方式:
暂无
卫星简介
星链(Starlink)计划是由太空探索技术公司(SpaceX)提出的一个巨型低轨卫星互联网星座项目,计划在2019年至2024年间在太空搭建由约1.2万颗卫星组成的“星链”网络,其中1584颗将部署在地球上空550千米处的近地轨道,并从2020年开始工作。该卫星仍在工作。
2D轨道图
3D轨道图
轨道高度分析图
轨道倾角分析图
轨道综合分析图
查看轨道综合分析图